Regional Weather Roundup
Issued by NWS Albany, NY

Home | Current Version | Previous Version | Text Only | Print | Product List | Glossary On
Versions: 1 2 3 4 5 6 7 8 9 10 11 12 13 14 15 16 17 18 19 20 21 22 23 24 25 26 27 28 29 30 31 32 33 34 35 36 37 38 39 40 41 42
000
ASUS41 KALY 271710
RWRALY

NEW YORK STATE HOURLY WEATHER ROUNDUP
NATIONAL WEATHER SERVICE ALBANY NY
1200 PM EST SAT DEC 27 2014

NOTE: "FAIR" INDICATES FEW OR NO CLOUDS BELOW 12,000 FEET WITH NO
SIGNIFICANT WEATHER AND/OR NO OBSTRUCTIONS TO VISIBILITY.

NYZ032-033-038>043-046>054-057>066-NYZ062>081-271800-
EAST


CITY           SKY/WX    TMP DP  RH WIND       PRES   REMARKS
ALBANY         CLOUDY    40  31  70 S3        30.21F
GLENS FALLS    CLOUDY    37  30  75 CALM      30.20F
POUGHKEEPSIE   PTSUNNY   50  32  50 SW7       30.20F
NEWBURGH       SUNNY     48  36  61 W5        30.22F
MONTGOMERY     SUNNY     51  34  52 VRB5      30.20F
WHITE PLAINS   SUNNY     51  32  48 NW7       30.21F
ISLIP          MOSUNNY   53  32  44 CALM      30.21F
NEW YORK CITY  MOSUNNY   51  33  50 NW3       30.24F
CENTRAL PARK   SUNNY     51  31  46 CALM      30.26F
$$

NYZ005>009-017-018-044>046-055-056-271800-
CENTRAL


CITY           SKY/WX    TMP DP  RH WIND       PRES   REMARKS
FULTON         MOSUNNY   49  36  61 VRB6      30.11F
SYRACUSE       CLOUDY    50  36  58 S9        30.12F
ROME           CLOUDY    43  34  70 SE7       30.17F
ELMIRA         SUNNY     45  35  68 CALM      30.15F
BINGHAMTON     MOSUNNY   43  33  68 S8        30.15F
MONTICELLO     CLOUDY    43  34  70 W3        30.22F
$$

NYZ026>034-041>043-271800-
NORTH


CITY           SKY/WX    TMP DP  RH WIND       PRES   REMARKS
WATERTOWN      PTSUNNY   48  34  58 S9        30.09F
FORT DRUM      NOT AVBL
MASSENA        CLOUDY    42  35  76 S5        30.11F
SARANAC LAKE   CLOUDY    37  32  82 SW9       30.07F WCI  30
PLATTSBURGH    CLOUDY    40  34  79 SE6       30.13F
$$

NYZ001>004-010>016-019>021-271800-
WEST


CITY           SKY/WX    TMP DP  RH WIND       PRES   REMARKS
NIAGARA FALLS  PTSUNNY   47  37  68 SW16      30.08F
BUFFALO        PTSUNNY   49  37  63 SW15G21   30.09F
DUNKIRK        CLOUDY    49  37  63 SW10G24   30.10F
JAMESTOWN      CLOUDY    43  34  70 S10       30.12F
WELLSVILLE     SUNNY     47  35  63 SW14G20   30.12F
ROCHESTER      PTSUNNY   50  37  61 SW12      30.10F
PENN YAN       SUNNY     50  36  58 S14       30.12F
$$

             KEY
       WCI = WIND CHILL INDEX
       VSB = VISIBILITY
       HX  = HEAT INDEX
$$


USA.gov is the U.S. government's official web portal to all federal, state and local government web resources and services.